Jefferson, NC

6:37 AM EST on January 17, 2018 (GMT -0500)
Ashe County

Weather History for KGEV - December, 2010

Change the Weather History Date:

Monday, December 6, 2010

  Actual Average Record
Temperature  
Mean Temperature 16 °F -  
Max Temperature 19 °F 49 °F 71 °F (1998)
Min Temperature 12 °F 23 °F 4 °F (1974)
Degree Days  
Heating Degree Days 50    
Moisture  
Dew Point 10 °F    
Average Humidity 72    
Maximum Humidity 86    
Minimum Humidity 62    
Precipitation  
Precipitation 0.00 in - - ()
Sea Level Pressure  
Sea Level Pressure 29.82 in    
Wind  
Wind Speed 21 mph (NW)    
Max Wind Speed 36 mph    
Max Gust Speed 68 mph    
Visibility 4 miles    
Events Snow    
Averages and records for this station are not official NWS values.
T = Trace of Precipitation, MM = Missing Value Source: NWS Daily Summary

Daily Weather History Graph

Daily Weather History Graph

Search for Another Location

Airport or City:

Trip Planner

Search our weather history database for the weather conditions in past years. The results will help you decide how hot, cold, wet, or windy it might be!

Date:

Astronomy

Dec. 06, 2010 Rise Set
Actual Time 7:23 AM EST 5:10 PM EST
Civil Twilight 6:54 AM EST 5:38 PM EST
Nautical Twilight 6:22 AM EST 6:10 PM EST
Astronomical Twilight 5:51 AM EST 6:41 PM EST
Moon 8:18 AM EST (12/6) 6:06 PM EST (12/6)
Length of Visible Light 10h 43m
Length of Day
9h 46m
New Moon, 1% of the Moon is Illuminated
Dec 6
New Moon
Dec 13
First Quarter
Dec 21
Full
Dec 27
Last Quarter
Jan 4
New

Hourly Weather History & Observations

Time (EST) Temp. Windchill Dew Point Humidity Pressure Visibility Wind Dir Wind Speed Gust Speed Precip Events Conditions
12:01 AM 19.4 °F 1.4 °F 12.2 °F 74% 29.88 in 10.0 mi WNW 26.5 mph 41.4 mph N/A   Clear
12:21 AM 19.4 °F 2.8 °F 12.2 °F 74% 29.87 in 7.0 mi NW 21.9 mph 40.3 mph N/A Snow Light Snow
12:41 AM 19.4 °F 0.8 °F 12.2 °F 74% 29.86 in 10.0 mi WNW 28.8 mph 36.8 mph N/A   Scattered Clouds
1:01 AM 19.4 °F 1.1 °F 12.2 °F 74% 29.86 in 4.0 mi NW 27.6 mph 42.6 mph N/A Snow Light Snow
1:21 AM 19.4 °F 0.8 °F 12.2 °F 74% 29.85 in 4.0 mi NW 28.8 mph 40.3 mph N/A Snow Light Snow
1:41 AM 19.4 °F 0.8 °F 12.2 °F 74% 29.85 in 3.0 mi NW 28.8 mph 44.9 mph N/A Snow Light Snow
2:01 AM 19.4 °F 0.8 °F 10.4 °F 68% 29.85 in 4.0 mi NW 28.8 mph 44.9 mph N/A Snow Light Snow
2:21 AM 19.4 °F 2.8 °F 12.2 °F 74% 29.86 in 3.0 mi NW 21.9 mph 39.1 mph N/A Snow Light Snow
2:41 AM 19.4 °F 3.2 °F 10.4 °F 68% 29.86 in 5.0 mi NW 20.7 mph 35.7 mph N/A Snow Light Snow
3:01 AM 19.4 °F 2.8 °F 12.2 °F 74% 29.86 in 3.0 mi NW 21.9 mph 39.1 mph N/A Snow Light Snow
3:21 AM 19.4 °F 2.8 °F 14.0 °F 80% 29.85 in 1.2 mi NNW 21.9 mph 33.4 mph N/A Snow Light Snow
3:41 AM 17.6 °F 3.7 °F 14.0 °F 86% 29.86 in 1.5 mi NW 13.8 mph 32.2 mph N/A Snow Light Snow
4:01 AM 17.6 °F 2.2 °F 14.0 °F 86% 29.85 in 1.2 mi NW 17.3 mph 27.6 mph N/A Snow Light Snow
4:21 AM 17.6 °F 0.9 °F 12.2 °F 79% 29.84 in 1.2 mi NW 20.7 mph 33.4 mph N/A Snow Light Snow
4:41 AM 17.6 °F -0.3 °F 12.2 °F 79% 29.83 in 1.5 mi NW 24.2 mph 36.8 mph N/A Snow Light Snow
5:01 AM 17.6 °F 0.5 °F 10.4 °F 73% 29.83 in 2.5 mi NW 21.9 mph 42.6 mph N/A Snow Light Snow
5:23 AM 17.6 °F -0.3 °F 10.4 °F 73% 29.82 in 1.8 mi NW 24.2 mph 41.4 mph N/A Snow Light Snow
5:41 AM 17.6 °F -0.6 °F 10.4 °F 73% 29.82 in 3.0 mi NW 25.3 mph 42.6 mph N/A Snow Light Snow
6:01 AM 15.8 °F -4.4 °F 8.6 °F 73% 29.81 in 5.0 mi NW 29.9 mph 43.7 mph N/A Snow Light Snow
6:21 AM 15.8 °F -3.1 °F 8.6 °F 73% 29.80 in 4.0 mi NW 25.3 mph 67.9 mph N/A Snow Light Snow
6:41 AM 15.8 °F -4.4 °F 8.6 °F 73% 29.80 in 5.0 mi NW 29.9 mph 46.0 mph N/A Snow Light Snow
7:01 AM 15.8 °F -2.7 °F 8.6 °F 73% 29.82 in 4.0 mi NW 24.2 mph 42.6 mph N/A Snow Light Snow
7:21 AM 15.8 °F -5.0 °F 8.6 °F 73% 29.81 in 2.0 mi NW 32.2 mph 48.3 mph N/A Snow Light Snow
7:41 AM 15.8 °F -5.8 °F 8.6 °F 73% 29.81 in 2.5 mi NW 35.7 mph 52.9 mph N/A Snow Light Snow
8:01 AM 15.8 °F -4.1 °F 6.8 °F 68% 29.82 in 4.0 mi NW 28.8 mph 50.6 mph N/A Snow Light Snow
8:21 AM 15.8 °F -1.5 °F 6.8 °F 68% 29.85 in 5.0 mi NW 20.7 mph 39.1 mph N/A Snow Light Snow
8:41 AM 15.8 °F -1.1 °F 6.8 °F 68% 29.85 in 7.0 mi NW 19.6 mph 34.5 mph N/A Snow Light Snow
9:01 AM 15.8 °F -1.5 °F 6.8 °F 68% 29.85 in 5.0 mi NW 20.7 mph 39.1 mph N/A Snow Light Snow
9:21 AM 15.8 °F -0.6 °F 8.6 °F 73% 29.85 in 5.0 mi NW 18.4 mph 26.5 mph N/A Snow Light Snow
9:41 AM 17.6 °F 0.1 °F 8.6 °F 68% 29.85 in 7.0 mi NW 23.0 mph 38.0 mph N/A Snow Light Snow
10:01 AM 17.6 °F -0.6 °F 8.6 °F 68% 29.85 in 4.0 mi NW 25.3 mph 34.5 mph N/A Snow Light Snow
10:41 AM 17.6 °F 3.2 °F 8.6 °F 68% 29.85 in 4.0 mi NW 15.0 mph 25.3 mph N/A Snow Light Snow
11:01 AM 17.6 °F -0.6 °F 10.4 °F 73% 29.83 in 3.0 mi NW 25.3 mph 34.5 mph N/A Snow Light Snow
11:21 AM 17.6 °F 5.0 °F 10.4 °F 73% 29.84 in 3.0 mi NNW 11.5 mph 32.2 mph N/A Snow Light Snow
11:41 AM 17.6 °F 6.4 °F 10.4 °F 73% 29.84 in 4.0 mi NW 9.2 mph 24.2 mph N/A Snow Light Snow
12:06 PM 19.4 °F 9.5 °F 10.4 °F 68% 29.83 in 5.0 mi North 8.1 mph 20.7 mph N/A Snow Light Snow
12:21 PM 19.4 °F 6.0 °F 10.4 °F 68% 29.82 in 5.0 mi WNW 13.8 mph 26.5 mph N/A Snow Light Snow
12:41 PM 19.4 °F 7.2 °F 10.4 °F 68% 29.82 in 7.0 mi NW 11.5 mph 20.7 mph N/A Snow Light Snow
1:01 PM 19.4 °F 6.0 °F 10.4 °F 68% 29.81 in 5.0 mi NW 13.8 mph 27.6 mph N/A Snow Light Snow
1:21 PM 19.4 °F 7.2 °F 10.4 °F 68% 29.80 in 4.0 mi WNW 11.5 mph 28.8 mph N/A Snow Light Snow
1:41 PM 19.4 °F 7.2 °F 10.4 °F 68% 29.79 in 4.0 mi WNW 11.5 mph 20.7 mph N/A Snow Light Snow
2:01 PM 19.4 °F 6.0 °F 10.4 °F 68% 29.79 in 4.0 mi NW 13.8 mph 21.9 mph N/A Snow Light Snow
2:22 PM 19.4 °F - 12.2 °F 74% 29.79 in 2.5 mi Calm Calm - N/A Snow Light Snow
2:43 PM 19.4 °F 10.4 °F 12.2 °F 74% 29.79 in 1.0 mi WNW 6.9 mph - N/A Snow Light Snow
3:01 PM 19.4 °F 6.0 °F 12.2 °F 74% 29.79 in 1.8 mi NNW 13.8 mph 19.6 mph N/A Snow Light Snow
3:21 PM 19.4 °F 11.5 °F 12.2 °F 74% 29.79 in 2.5 mi West 5.8 mph - N/A Snow Light Snow
3:43 PM 19.4 °F 11.5 °F 10.4 °F 68% 29.79 in 5.0 mi NNW 5.8 mph - N/A Snow Light Snow
4:01 PM 19.4 °F 10.4 °F 10.4 °F 68% 29.79 in 4.0 mi WNW 6.9 mph 19.6 mph N/A Snow Light Snow
4:21 PM 19.4 °F 14.3 °F 12.2 °F 74% 29.79 in 3.0 mi WSW 3.5 mph - N/A Snow Light Snow
4:41 PM 17.6 °F - 12.2 °F 79% 29.79 in 1.5 mi Calm Calm - N/A Snow Light Snow
5:01 PM 17.6 °F 10.7 °F 12.2 °F 79% 29.79 in 1.8 mi NNW 4.6 mph - N/A Snow Light Snow
5:21 PM 17.6 °F 12.3 °F 10.4 °F 73% 29.79 in 3.0 mi North 3.5 mph - N/A Snow Light Snow
5:41 PM 17.6 °F 7.3 °F 10.4 °F 73% 29.79 in 3.0 mi WNW 8.1 mph - N/A Snow Light Snow
6:01 PM 17.6 °F 10.7 °F 10.4 °F 73% 29.78 in 3.0 mi WNW 4.6 mph 20.7 mph N/A Snow Light Snow
6:21 PM 15.8 °F 6.1 °F 12.2 °F 86% 29.79 in 1.5 mi NW 6.9 mph - N/A Snow Light Snow
6:41 PM 15.8 °F 2.7 °F 12.2 °F 86% 29.80 in 1.2 mi West 11.5 mph 16.1 mph N/A Snow Snow
7:01 PM 15.8 °F -2.3 °F 8.6 °F 73% 29.79 in 1.5 mi West 23.0 mph 34.5 mph N/A Snow Light Snow
7:21 PM 14.0 °F -0.2 °F 6.8 °F 73% 29.80 in 3.0 mi WNW 12.7 mph 33.4 mph N/A Snow Light Snow
7:41 PM 14.0 °F 0.5 °F 5.0 °F 67% 29.79 in 7.0 mi WNW 11.5 mph 29.9 mph N/A   Mostly Cloudy
8:01 PM 14.0 °F -0.8 °F 5.0 °F 67% 29.79 in 3.0 mi NW 13.8 mph 23.0 mph N/A Snow Light Snow
8:21 PM 14.0 °F -0.2 °F 5.0 °F 67% 29.79 in 5.0 mi NW 12.7 mph 26.5 mph N/A Snow Light Snow
8:41 PM 12.2 °F -5.8 °F 3.2 °F 67% 29.78 in 3.0 mi NW 19.6 mph 27.6 mph N/A Snow Light Snow
9:01 PM 12.2 °F -7.5 °F 3.2 °F 67% 29.76 in 1.2 mi NW 24.2 mph 36.8 mph N/A Snow Light Snow
9:21 PM 12.2 °F -7.5 °F 1.4 °F 62% 29.76 in 2.0 mi NW 24.2 mph 39.1 mph N/A Snow Light Snow
9:41 PM 12.2 °F -8.2 °F 1.4 °F 62% 29.76 in 5.0 mi NW 26.5 mph 34.5 mph N/A   Haze
10:01 PM 12.2 °F -7.1 °F 1.4 °F 62% 29.76 in 5.0 mi NW 23.0 mph 34.5 mph N/A Snow Light Snow
10:21 PM 12.2 °F -5.8 °F 1.4 °F 62% 29.76 in 10.0 mi NW 19.6 mph 33.4 mph N/A   Clear
10:41 PM 12.2 °F -5.8 °F 1.4 °F 62% 29.75 in 7.0 mi NW 19.6 mph 34.5 mph N/A   Clear
11:01 PM 10.4 °F -5.4 °F 1.4 °F 67% 29.76 in 10.0 mi NW 13.8 mph 25.3 mph N/A   Scattered Clouds
11:21 PM 10.4 °F -4.1 °F 1.4 °F 67% 29.76 in 10.0 mi West 11.5 mph 19.6 mph N/A   Scattered Clouds
11:41 PM 10.4 °F -9.1 °F 1.4 °F 67% 29.75 in 7.0 mi West 21.9 mph 33.4 mph N/A   Scattered Clouds